ETH338 HAAB-HUEN

Flight info

Callsign ETH338
Flight time N/A
Altitude 36000
Route ETGOM1A ETGOM UL432 IMVIP IMVIP2A
Aircraft B38M/M-SDE1FGHILORVWXY/HB1

Departure

Time N/A
Airport Addis Ababa Bole International Airport (HAAB)

Arrival

Time 2026-04-24 19:58
Airport Entebbe International Airport (HUEN)
Time Latitude Longitude Altitude Speed Heading
2026-04-24 18:54 5.74136 37.00793 35944 ft 475 kts 210°
2026-04-24 18:55 5.65420 36.96147 35930 ft 475 kts 210°
2026-04-24 18:56 5.59584 36.93038 35912 ft 475 kts 210°
2026-04-24 18:56 5.53747 36.89928 35910 ft 475 kts 210°
2026-04-24 18:57 5.47911 36.86820 35911 ft 475 kts 210°
2026-04-24 18:57 5.42086 36.83718 35901 ft 473 kts 210°
2026-04-24 18:58 5.36266 36.80620 35893 ft 474 kts 210°
2026-04-24 18:58 5.30444 36.77522 35896 ft 474 kts 210°
2026-04-24 18:59 5.24621 36.74423 35887 ft 474 kts 210°
2026-04-24 18:59 5.18795 36.71323 35886 ft 474 kts 209°
2026-04-24 19:00 5.12976 36.68228 35875 ft 473 kts 210°
2026-04-24 19:00 5.07164 36.65138 35881 ft 473 kts 210°
2026-04-24 19:01 5.01342 36.62043 35864 ft 473 kts 210°
2026-04-24 19:01 4.95524 36.58950 35865 ft 473 kts 210°
2026-04-24 19:02 4.90652 36.56360 35863 ft 473 kts 209°
2026-04-24 19:02 4.83894 36.52770 35853 ft 473 kts 210°
2026-04-24 19:03 4.78078 36.49680 35850 ft 473 kts 210°
2026-04-24 19:03 4.72262 36.46590 35839 ft 473 kts 210°
2026-04-24 19:04 4.66452 36.43506 35831 ft 473 kts 210°
2026-04-24 19:04 4.60677 36.40439 35826 ft 472 kts 210°
2026-04-24 19:05 4.54862 36.37352 35825 ft 473 kts 210°
2026-04-24 19:05 4.49985 36.34764 35818 ft 473 kts 210°
2026-04-24 19:06 4.43219 36.31173 35819 ft 473 kts 210°
2026-04-24 19:06 4.37394 36.28083 35816 ft 474 kts 210°
2026-04-24 19:07 4.31572 36.24995 35812 ft 473 kts 210°
2026-04-24 19:07 4.26692 36.22406 35808 ft 474 kts 210°
2026-04-24 19:08 4.20857 36.19312 35812 ft 474 kts 210°
2026-04-24 19:08 4.15022 36.16218 35812 ft 475 kts 210°
2026-04-24 19:09 4.09219 36.13142 35811 ft 475 kts 210°
2026-04-24 19:09 4.03381 36.10048 35811 ft 475 kts 210°
2026-04-24 19:10 3.97535 36.06962 35807 ft 475 kts 209°
2026-04-24 19:10 3.91678 36.03876 35810 ft 476 kts 209°
2026-04-24 19:11 3.85823 36.00791 35808 ft 476 kts 209°
2026-04-24 19:11 3.79964 35.97704 35805 ft 476 kts 209°
2026-04-24 19:12 3.74109 35.94620 35806 ft 476 kts 209°
2026-04-24 19:12 3.68251 35.91535 35804 ft 476 kts 209°
2026-04-24 19:13 3.63381 35.88970 35802 ft 476 kts 209°
2026-04-24 19:13 3.56534 35.85365 35808 ft 476 kts 209°
2026-04-24 19:14 3.50675 35.82281 35806 ft 476 kts 209°
2026-04-24 19:14 3.44817 35.79197 35809 ft 476 kts 209°
2026-04-24 19:15 3.38957 35.76113 35809 ft 476 kts 209°
2026-04-24 19:15 3.33103 35.73033 35806 ft 475 kts 209°
2026-04-24 19:16 3.24332 35.68418 35808 ft 475 kts 209°
2026-04-24 19:16 3.18521 35.65361 35813 ft 475 kts 209°
2026-04-24 19:17 3.12677 35.62286 35775 ft 475 kts 210°
2026-04-24 19:17 3.09975 35.60423 35753 ft 470 kts 225°
2026-04-24 19:17 3.07629 35.58144 35773 ft 472 kts 224°
2026-04-24 19:18 3.02861 35.53630 35781 ft 472 kts 225°
2026-04-24 19:18 2.98132 35.49073 35790 ft 472 kts 225°
2026-04-24 19:19 2.93414 35.44513 35804 ft 471 kts 225°
2026-04-24 19:19 2.88697 35.39953 35821 ft 472 kts 225°
2026-04-24 19:20 2.83982 35.35395 35830 ft 472 kts 225°
2026-04-24 19:20 2.79261 35.30833 35835 ft 472 kts 225°
2026-04-24 19:21 2.74540 35.26272 35833 ft 471 kts 225°
2026-04-24 19:21 2.69821 35.21713 35849 ft 471 kts 225°
2026-04-24 19:22 2.65103 35.17155 35849 ft 472 kts 225°
2026-04-24 19:22 2.60386 35.12599 35864 ft 472 kts 225°
2026-04-24 19:23 2.55669 35.08042 35866 ft 471 kts 225°
2026-04-24 19:23 2.50952 35.03488 35888 ft 471 kts 225°
2026-04-24 19:24 2.46233 34.98930 35903 ft 472 kts 225°
2026-04-24 19:24 2.41841 34.94080 35910 ft 470 kts 230°
2026-04-24 19:25 2.37581 34.89117 35928 ft 470 kts 231°
2026-04-24 19:25 2.33329 34.84153 35932 ft 470 kts 231°
2026-04-24 19:26 2.29105 34.79222 35936 ft 470 kts 231°
2026-04-24 19:26 2.24850 34.74254 35942 ft 470 kts 231°
2026-04-24 19:27 2.20603 34.69296 35941 ft 468 kts 231°
2026-04-24 19:27 2.16360 34.64344 35946 ft 470 kts 230°
2026-04-24 19:28 2.12109 34.59382 35941 ft 470 kts 230°
2026-04-24 19:28 2.07859 34.54423 35943 ft 470 kts 230°
2026-04-24 19:29 2.01481 34.46980 35952 ft 470 kts 230°
2026-04-24 19:30 1.97252 34.42041 35903 ft 463 kts 230°
2026-04-24 19:30 1.93031 34.37097 35936 ft 469 kts 230°
2026-04-24 19:31 1.88797 34.32179 35981 ft 467 kts 230°
2026-04-24 19:31 1.84542 34.27225 36065 ft 471 kts 230°
2026-04-24 19:31 1.82350 34.24782 35895 ft 468 kts 225°
2026-04-24 19:32 1.80039 34.22498 35925 ft 470 kts 226°
2026-04-24 19:32 1.75467 34.17801 35924 ft 475 kts 227°
2026-04-24 19:33 1.70867 34.13116 35858 ft 472 kts 226°
2026-04-24 19:33 1.66292 34.08435 36020 ft 473 kts 226°
2026-04-24 19:33 1.64003 34.06095 35822 ft 467 kts 226°
2026-04-24 19:34 1.61737 34.03763 35937 ft 471 kts 226°
2026-04-24 19:34 1.57138 33.99061 35937 ft 473 kts 226°
2026-04-24 19:35 1.52533 33.94346 35929 ft 473 kts 226°
2026-04-24 19:35 1.47943 33.89644 35936 ft 472 kts 226°
2026-04-24 19:36 1.43350 33.84939 35918 ft 473 kts 226°
2026-04-24 19:36 1.38760 33.80238 35924 ft 473 kts 226°
2026-04-24 19:37 1.34165 33.75533 35921 ft 473 kts 226°
2026-04-24 19:37 1.29569 33.70826 35924 ft 473 kts 226°
2026-04-24 19:38 1.24977 33.66124 35925 ft 472 kts 226°
2026-04-24 19:38 1.20430 33.61468 35924 ft 471 kts 226°
2026-04-24 19:39 1.15857 33.56786 35924 ft 471 kts 226°
2026-04-24 19:39 1.11281 33.52101 35923 ft 471 kts 226°
2026-04-24 19:40 1.06706 33.47416 35918 ft 470 kts 226°
2026-04-24 19:40 1.04443 33.45100 35445 ft 464 kts 226°
2026-04-24 19:40 1.02181 33.42785 34599 ft 469 kts 226°
2026-04-24 19:40 0.99887 33.40437 33648 ft 475 kts 225°
2026-04-24 19:41 0.97570 33.38063 32772 ft 478 kts 226°
2026-04-24 19:41 0.95246 33.35684 32000 ft 479 kts 226°
2026-04-24 19:41 0.92917 33.33301 31195 ft 480 kts 226°
2026-04-24 19:41 0.90575 33.30904 30316 ft 484 kts 226°
2026-04-24 19:42 0.88213 33.28486 29314 ft 488 kts 226°
2026-04-24 19:42 0.85842 33.26060 28529 ft 486 kts 226°
2026-04-24 19:42 0.83507 33.23648 27965 ft 480 kts 228°
2026-04-24 19:42 0.81579 33.20947 27223 ft 478 kts 243°
2026-04-24 19:43 0.80375 33.17871 26590 ft 474 kts 253°
2026-04-24 19:43 0.79389 33.14738 25966 ft 471 kts 253°
2026-04-24 19:43 0.78440 33.11614 25298 ft 469 kts 253°
2026-04-24 19:43 0.77513 33.08491 24591 ft 469 kts 254°
2026-04-24 19:44 0.76906 33.06418 24148 ft 468 kts 254°
2026-04-24 19:44 0.74443 32.99312 22383 ft 467 kts 238°
2026-04-24 19:44 0.72675 32.96663 21818 ft 461 kts 236°
2026-04-24 19:45 0.70896 32.94026 21257 ft 455 kts 236°
2026-04-24 19:45 0.69117 32.91423 20624 ft 452 kts 235°
2026-04-24 19:45 0.67341 32.88840 19999 ft 449 kts 235°
2026-04-24 19:45 0.65574 32.86275 19375 ft 447 kts 235°
2026-04-24 19:46 0.63814 32.83722 18757 ft 445 kts 235°
2026-04-24 19:46 0.62064 32.81184 18136 ft 443 kts 235°
2026-04-24 19:46 0.60323 32.78660 17473 ft 437 kts 235°
2026-04-24 19:46 0.58634 32.76211 16893 ft 419 kts 235°
2026-04-24 19:47 0.57012 32.73860 16401 ft 402 kts 235°
2026-04-24 19:47 0.55474 32.71628 16229 ft 380 kts 235°
2026-04-24 19:47 0.54008 32.69503 15824 ft 366 kts 235°
2026-04-24 19:47 0.52584 32.67438 15407 ft 355 kts 235°
2026-04-24 19:48 0.51201 32.65433 14888 ft 348 kts 235°
2026-04-24 19:48 0.49835 32.63452 14315 ft 344 kts 234°
2026-04-24 19:48 0.47148 32.59555 13097 ft 338 kts 235°
2026-04-24 19:49 0.44506 32.55726 11842 ft 332 kts 234°
2026-04-24 19:49 0.41900 32.51947 10630 ft 327 kts 235°
2026-04-24 19:50 0.38081 32.46408 8820 ft 318 kts 234°
2026-04-24 19:50 0.36836 32.44603 8220 ft 314 kts 234°
2026-04-24 19:51 0.34160 32.41237 7030 ft 306 kts 214°
2026-04-24 19:51 0.32300 32.40371 6820 ft 286 kts 192°
2026-04-24 19:52 0.28674 32.40390 6765 ft 241 kts 172°
2026-04-24 19:52 0.27088 32.40614 6762 ft 219 kts 172°
2026-04-24 19:52 0.25647 32.40818 6722 ft 198 kts 172°
2026-04-24 19:52 0.24352 32.40999 6658 ft 178 kts 172°
2026-04-24 19:53 0.23183 32.41163 6593 ft 160 kts 172°
2026-04-24 19:53 0.22177 32.41305 6520 ft 131 kts 172°
2026-04-24 19:53 0.20057 32.41550 6618 ft 178 kts 171°
2026-04-24 19:54 0.18869 32.41728 6731 ft 160 kts 172°
2026-04-24 19:54 0.17829 32.41899 6562 ft 151 kts 171°
2026-04-24 19:54 0.16732 32.42080 6418 ft 167 kts 171°
2026-04-24 19:54 0.15578 32.42258 6312 ft 168 kts 172°
2026-04-24 19:55 0.15189 32.42314 6267 ft 166 kts 173°
2026-04-24 19:55 0.13311 32.42568 5949 ft 158 kts 172°
2026-04-24 19:55 0.12223 32.42714 5562 ft 158 kts 174°
2026-04-24 19:55 0.11123 32.42848 5115 ft 164 kts 172°
2026-04-24 19:56 0.09994 32.43025 4689 ft 163 kts 172°
2026-04-24 19:56 0.08863 32.43182 4434 ft 167 kts 175°
2026-04-24 19:56 0.07745 32.43323 4247 ft 156 kts 173°
2026-04-24 19:56 0.06711 32.43461 4046 ft 146 kts 172°
2026-04-24 19:57 0.05721 32.43597 3835 ft 141 kts 171°
2026-04-24 19:57 0.04815 32.43725 3784 ft 114 kts 172°
2026-04-24 19:57 0.04342 32.43791 3795 ft 91 kts 172°
2026-04-24 19:57 0.03656 32.43885 3785 ft 68 kts 172°
2026-04-24 19:58 0.03352 32.43930 3789 ft 63 kts 171°
2026-04-24 19:58 0.02952 32.43984 3789 ft 30 kts 174°
2026-04-24 19:58 0.02764 32.44007 3794 ft 28 kts 172°
2026-04-24 19:58 0.02571 32.44035 3786 ft 28 kts 172°
2026-04-24 19:59 0.02391 32.44060 3786 ft 25 kts 172°
2026-04-24 19:59 0.02294 32.44120 3782 ft 15 kts 104°
2026-04-24 19:59 0.02343 32.44216 3783 ft 18 kts 41°
2026-04-24 19:59 0.02464 32.44220 3784 ft 19 kts 352°
2026-04-24 20:00 0.02591 32.44205 3788 ft 18 kts 352°
2026-04-24 20:00 0.02714 32.44188 3791 ft 18 kts 352°
2026-04-24 20:00 0.02843 32.44170 3785 ft 20 kts 352°
2026-04-24 20:00 0.02993 32.44149 3782 ft 23 kts 352°
2026-04-24 20:01 0.03152 32.44127 3783 ft 23 kts 352°
2026-04-24 20:01 0.03318 32.44104 3785 ft 25 kts 352°
2026-04-24 20:01 0.03491 32.44080 3788 ft 26 kts 352°
2026-04-24 20:01 0.03673 32.44054 3785 ft 27 kts 352°
2026-04-24 20:02 0.03862 32.44028 3782 ft 28 kts 352°
2026-04-24 20:02 0.04049 32.44003 3785 ft 24 kts 351°
2026-04-24 20:02 0.04183 32.43994 3788 ft 16 kts 25°
2026-04-24 20:02 0.04214 32.44087 3785 ft 14 kts 81°
2026-04-24 20:03 0.04268 32.44136 3784 ft 10 kts 358°
2026-04-24 20:03 0.04288 32.44135 3790 ft 1 kts 351°
2026-04-24 20:03 0.04298 32.44132 3787 ft 3 kts 348°
2026-04-24 20:03 0.04323 32.44140 3786 ft 3 kts 67°
2026-04-24 20:04 0.04327 32.44168 3787 ft 5 kts 81°
2026-04-24 20:04 0.04332 32.44205 3783 ft 3 kts 81°
2026-04-24 20:04 0.04333 32.44211 3783 ft 0 kts 82°